146P/Shoemaker-LINEAR (2024)

Japanese version
Home page
Updated on June 4, 2024

---------------------------------------------------------------------

* Profile

* Pictures

* Orbital Elements

Epoch 2024 July 29.0 TT = JDT 2460520.5
T 2024 Aug. 5.50863 TT                                  MPCW
q   1.4195449            (2000.0)            P               Q
n   0.12200828     Peri.  317.07324     +0.93950301     -0.13416120
a   4.0260253      Node    53.37641     +0.30273978     +0.75568905
e   0.6474079      Incl.   23.12294     -0.16025828     +0.64104199
P   8.08
From 18 observations 2008 Aug. 21-2016 May 4, mean residual 0".9.

* Finding Charts

* Magnitudes Graph

        m1 =  9.5 + 5 log d + 30   log r(t + 15)  [   ,75]  (             - 2024 Oct. 19)
        m1 = 13.5 + 5 log d + 15.0 log r          [75,   ]  (2024 Oct. 19 -             )

---------------------------------------------------------------------

The orbital elements are published on M.P.E.C. 2016-K18.
The charts are made with StellaNavigator Ver.11 (AstroArts).
The magnitudes graphs are made with Comet for Windows.

---------------------------------------------------------------------

Copyright(C) Seiichi Yoshida (comet@aerith.net). All rights reserved.